When you browse on this site, cookies collect data to enhance your experience and personalize the content and advertising you see.
Visit our Privacy Policy to learn more. By continuing to use the site, you agree to this use of cookies and data.
  • In Deutschland
  • Länderverzeichnis
  • Für 7 Tage
  • Wassertemperatur
  • Wetterkarte
  • Widgets
  • user-avatar
    Anmelden

    Stündliche Wetter Andora

    Heute, 27 Mai, Mittwoch

    Zeit Temperatur Niederschläge Wind Luftdruck Luftfeuchtigkeit
    00:00 +8°C° 0 mm 2 m/S 630 mmHg 75%
    01:00 +8°C° 0 mm 1 m/S 629 mmHg 71%
    02:00 +8°C° 0 mm 1 m/S 629 mmHg 67%
    03:00 +8°C° 0 mm 1 m/S 629 mmHg 63%
    04:00 +9°C° 0 mm 1 m/S 630 mmHg 63%
    05:00 +10°C° 0 mm 1 m/S 630 mmHg 63%
    06:00 +11°C° 0 mm 1 m/S 631 mmHg 63%
    07:00 +14°C° 0 mm 1 m/S 632 mmHg 56%
    08:00 +16°C° 0 mm 1 m/S 633 mmHg 49%
    09:00 +19°C° 0 mm 1 m/S 634 mmHg 43%
    10:00 +20°C° 0 mm 1 m/S 634 mmHg 42%
    11:00 +19°C° 0 mm 2 m/S 634 mmHg 42%
    12:00 +20°C° 0 mm 2 m/S 634 mmHg 42%
    13:00 +19°C° 0.3 mm 2 m/S 634 mmHg 51%
    14:00 +18°C° 0.3 mm 2 m/S 633 mmHg 59%
    15:00 +17°C° 0.3 mm 2 m/S 633 mmHg 67%
    16:00 +16°C° 0.7 mm 1 m/S 632 mmHg 75%
    17:00 +15°C° 0.7 mm 1 m/S 632 mmHg 82%
    18:00 +14°C° 0.7 mm 1 m/S 632 mmHg 89%
    19:00 +13°C° 0.3 mm 1 m/S 632 mmHg 91%
    20:00 +12°C° 0.3 mm 1 m/S 632 mmHg 94%
    21:00 +11°C° 0.3 mm 1 m/S 631 mmHg 96%
    22:00 +11°C° 0 mm 1 m/S 631 mmHg 96%
    23:00 +11°C° 0 mm 1 m/S 631 mmHg 95%

    Morgen, 28 Mai, Donnerstag

    Zeit Temperatur Niederschläge Wind Luftdruck Luftfeuchtigkeit
    00:00 +10°C° 0 mm 1 m/S 631 mmHg 95%
    01:00 +10°C° 0 mm 1 m/S 631 mmHg 95%
    02:00 +10°C° 0 mm 1 m/S 630 mmHg 94%
    03:00 +10°C° 0 mm 1 m/S 630 mmHg 93%
    04:00 +10°C° 0 mm 1 m/S 630 mmHg 90%
    05:00 +10°C° 0 mm 1 m/S 630 mmHg 87%
    06:00 +10°C° 0 mm 0 m/S 630 mmHg 84%
    07:00 +13°C° 0 mm 1 m/S 631 mmHg 72%
    08:00 +15°C° 0 mm 1 m/S 632 mmHg 60%
    09:00 +18°C° 0 mm 1 m/S 633 mmHg 47%
    10:00 +19°C° 0 mm 1 m/S 632 mmHg 45%
    11:00 +20°C° 0 mm 1 m/S 632 mmHg 43%
    12:00 +20°C° 0 mm 2 m/S 632 mmHg 41%
    13:00 +19°C° 0.2 mm 2 m/S 632 mmHg 47%
    14:00 +19°C° 0.2 mm 1 m/S 631 mmHg 52%
    15:00 +19°C° 0.2 mm 1 m/S 630 mmHg 58%
    16:00 +18°C° 0.5 mm 1 m/S 630 mmHg 65%
    17:00 +16°C° 0.5 mm 1 m/S 629 mmHg 72%
    18:00 +15°C° 0.5 mm 1 m/S 628 mmHg 78%
    19:00 +13°C° 0 mm 1 m/S 628 mmHg 82%
    20:00 +12°C° 0 mm 1 m/S 628 mmHg 87%
    21:00 +10°C° 0 mm 1 m/S 627 mmHg 91%
    22:00 +10°C° 0 mm 1 m/S 627 mmHg 90%
    23:00 +10°C° 0 mm 1 m/S 626 mmHg 88%

    übermorgen, 29 Mai, Freitag

    Zeit Temperatur Niederschläge Wind Luftdruck Luftfeuchtigkeit
    00:00 +9°C° 0 mm 1 m/S 626 mmHg 87%
    01:00 +9°C° 0 mm 1 m/S 626 mmHg 84%
    02:00 +9°C° 0 mm 1 m/S 625 mmHg 81%
    03:00 +8°C° 0 mm 1 m/S 625 mmHg 78%
    04:00 +9°C° 0 mm 1 m/S 625 mmHg 75%
    05:00 +10°C° 0 mm 1 m/S 625 mmHg 73%
    06:00 +11°C° 0 mm 1 m/S 625 mmHg 70%
    07:00 +14°C° 0 mm 1 m/S 626 mmHg 59%
    08:00 +16°C° 0 mm 1 m/S 627 mmHg 48%
    09:00 +19°C° 0 mm 1 m/S 628 mmHg 37%
    10:00 +20°C° 0 mm 1 m/S 628 mmHg 35%
    11:00 +21°C° 0 mm 1 m/S 628 mmHg 33%
    12:00 +22°C° 0 mm 1 m/S 628 mmHg 31%
    13:00 +21°C° 0.1 mm 2 m/S 627 mmHg 35%
    14:00 +20°C° 0.1 mm 2 m/S 627 mmHg 39%
    15:00 +20°C° 0.1 mm 2 m/S 626 mmHg 44%
    16:00 +18°C° 0.4 mm 2 m/S 625 mmHg 55%
    17:00 +16°C° 0.4 mm 2 m/S 625 mmHg 66%
    18:00 +15°C° 0.4 mm 1 m/S 624 mmHg 77%
    19:00 +13°C° 0.3 mm 1 m/S 624 mmHg 82%
    20:00 +12°C° 0.3 mm 1 m/S 624 mmHg 88%
    21:00 +10°C° 0.3 mm 1 m/S 623 mmHg 93%
    22:00 +10°C° 0 mm 1 m/S 623 mmHg 92%
    23:00 +10°C° 0 mm 1 m/S 623 mmHg 91%

    30 Mai, Samstag

    Zeit Temperatur Niederschläge Wind Luftdruck Luftfeuchtigkeit
    00:00 +9°C° 0 mm 1 m/S 623 mmHg 90%
    01:00 +9°C° 0 mm 1 m/S 623 mmHg 88%
    02:00 +9°C° 0 mm 1 m/S 623 mmHg 87%
    03:00 +8°C° 0 mm 1 m/S 623 mmHg 85%
    04:00 +9°C° 0 mm 1 m/S 623 mmHg 85%
    05:00 +10°C° 0 mm 1 m/S 624 mmHg 85%
    06:00 +10°C° 0 mm 0 m/S 624 mmHg 84%
    07:00 +13°C° 0 mm 1 m/S 625 mmHg 74%
    08:00 +15°C° 0 mm 1 m/S 626 mmHg 63%
    09:00 +18°C° 0 mm 1 m/S 627 mmHg 52%
    10:00 +19°C° 0 mm 1 m/S 627 mmHg 49%
    11:00 +20°C° 0 mm 1 m/S 627 mmHg 45%
    12:00 +20°C° 0 mm 2 m/S 627 mmHg 41%
    13:00 +19°C° 0.1 mm 2 m/S 627 mmHg 45%
    14:00 +19°C° 0.1 mm 2 m/S 627 mmHg 50%
    15:00 +18°C° 0.1 mm 2 m/S 626 mmHg 54%
    16:00 +17°C° 0.1 mm 2 m/S 626 mmHg 61%
    17:00 +16°C° 0.1 mm 1 m/S 626 mmHg 68%
    18:00 +16°C° 0.1 mm 1 m/S 625 mmHg 75%
    19:00 +14°C° 0 mm 1 m/S 625 mmHg 81%
    20:00 +12°C° 0 mm 1 m/S 624 mmHg 87%
    21:00 +10°C° 0 mm 0 m/S 624 mmHg 94%
    22:00 +11°C° 0 mm 1 m/S 624 mmHg 93%
    23:00 +10°C° 0 mm 1 m/S 624 mmHg 93%

    31 Mai, Sonntag

    Zeit Temperatur Niederschläge Wind Luftdruck Luftfeuchtigkeit
    00:00 +10°C° 0 mm 1 m/S 624 mmHg 92%
    01:00 +10°C° 0 mm 1 m/S 623 mmHg 91%
    02:00 +9°C° 0 mm 1 m/S 623 mmHg 89%
    03:00 +9°C° 0 mm 1 m/S 623 mmHg 88%
    04:00 +10°C° 0 mm 1 m/S 624 mmHg 83%
    05:00 +11°C° 0 mm 1 m/S 624 mmHg 79%
    06:00 +12°C° 0 mm 1 m/S 625 mmHg 75%
    07:00 +15°C° 0 mm 1 m/S 626 mmHg 65%
    08:00 +18°C° 0 mm 1 m/S 626 mmHg 55%
    09:00 +20°C° 0 mm 1 m/S 627 mmHg 45%
    10:00 +21°C° 0 mm 1 m/S 627 mmHg 43%
    11:00 +21°C° 0 mm 2 m/S 628 mmHg 41%
    12:00 +21°C° 0 mm 2 m/S 628 mmHg 40%
    13:00 +21°C° 0.3 mm 2 m/S 627 mmHg 45%
    14:00 +20°C° 0.3 mm 2 m/S 627 mmHg 51%
    15:00 +20°C° 0.3 mm 2 m/S 626 mmHg 56%
    16:00 +20°C° 0.6 mm 1 m/S 626 mmHg 62%
    17:00 +19°C° 0.6 mm 1 m/S 625 mmHg 69%
    18:00 +18°C° 0.6 mm 1 m/S 625 mmHg 75%
    19:00 +15°C° 0.1 mm 1 m/S 624 mmHg 79%
    20:00 +14°C° 0.1 mm 1 m/S 624 mmHg 82%
    21:00 +12°C° 0.1 mm 1 m/S 624 mmHg 86%
    22:00 +12°C° 0.1 mm 1 m/S 624 mmHg 87%
    23:00 +12°C° 0.1 mm 1 m/S 623 mmHg 87%

    1 Juni, Montag

    Zeit Temperatur Niederschläge Wind Luftdruck Luftfeuchtigkeit
    00:00 +11°C° 0.1 mm 1 m/S 623 mmHg 87%
    01:00 +11°C° 0 mm 1 m/S 623 mmHg 87%
    02:00 +11°C° 0 mm 1 m/S 623 mmHg 87%
    03:00 +11°C° 0 mm 1 m/S 623 mmHg 87%
    04:00 +12°C° 0 mm 1 m/S 623 mmHg 85%
    05:00 +13°C° 0 mm 1 m/S 624 mmHg 82%
    06:00 +14°C° 0 mm 1 m/S 624 mmHg 80%
    07:00 +16°C° 0.2 mm 1 m/S 624 mmHg 73%
    08:00 +18°C° 0.2 mm 1 m/S 625 mmHg 65%
    09:00 +20°C° 0.2 mm 1 m/S 626 mmHg 58%
    10:00 +20°C° 1.3 mm 1 m/S 625 mmHg 61%
    11:00 +20°C° 1.3 mm 1 m/S 625 mmHg 64%
    12:00 +20°C° 1.3 mm 1 m/S 625 mmHg 66%
    13:00 +19°C° 2.3 mm 1 m/S 624 mmHg 71%
    14:00 +18°C° 2.3 mm 1 m/S 624 mmHg 75%
    15:00 +15°C° 2.3 mm 0 m/S 623 mmHg 79%
    16:00 +16°C° 1.4 mm 1 m/S 623 mmHg 82%
    17:00 +15°C° 1.4 mm 1 m/S 623 mmHg 85%
    18:00 +14°C° 1.4 mm 1 m/S 623 mmHg 88%
    19:00 +13°C° 1.6 mm 1 m/S 622 mmHg 89%
    20:00 +13°C° 1.6 mm 1 m/S 622 mmHg 90%
    21:00 +12°C° 1.6 mm 2 m/S 622 mmHg 91%
    22:00 +12°C° 0.8 mm 2 m/S 622 mmHg 91%
    23:00 +12°C° 0.8 mm 1 m/S 622 mmHg 91%
    Mehr zeigen